EDT,Max TemperatureF,Mean TemperatureF,Min TemperatureF,Max Dew PointF,MeanDew PointF,Min DewpointF,Max Humidity, Mean Humidity, Min Humidity, Max Sea Level PressureIn, Mean Sea Level PressureIn, Min Sea Level PressureIn, Max VisibilityMiles, Mean VisibilityMiles, Min VisibilityMiles, Max Wind SpeedMPH, Mean Wind SpeedMPH, Max Gust SpeedMPH,PrecipitationIn, CloudCover, Events, WindDirDegrees
2012-9-1,86,74,62,70,65,63,100,85,45,30.28,30.22,30.13,10,8,0,10,0,21,0.49,4,Fog-Rain,140
2012-9-2,86,75,64,70,66,63,100,87,45,30.18,30.10,30.01,10,7,0,8,1,26,0.29,6,Fog-Rain,220
2012-9-3,80,71,62,70,65,63,100,87,57,30.06,30.02,29.97,10,8,4,6,1,,0.14,7,Rain,132
2012-9-4,75,70,66,68,66,64,100,88,73,30.02,30.00,29.97,10,9,2,6,1,,0.08,8,Rain,121
2012-9-5,82,72,62,70,65,63,100,83,54,30.03,29.99,29.93,10,9,2,5,0,,0.00,6,Rain,119
2012-9-6,86,74,60,68,61,54,100,75,33,30.06,30.01,29.97,10,8,3,10,1,16,0.00,2,,290
2012-9-7,87,73,59,68,60,48,100,79,25,30.10,30.02,29.93,10,6,0,4,0,,0.00,4,Fog,258
2012-9-8,78,69,59,68,61,54,100,84,54,29.96,29.90,29.83,10,8,3,15,2,23,0.04,4,Rain,313
2012-9-9,75,60,46,54,48,43,100,75,31,30.12,30.01,29.95,10,8,0,10,2,,0.00,2,Fog,284
2012-9-10,77,60,44,59,48,41,100,77,28,30.22,30.16,30.12,10,7,0,7,1,,0.00,4,Fog,277
2012-9-11,77,62,46,59,51,45,100,81,39,30.34,30.28,30.22,10,8,0,8,1,,0.00,5,Fog,115
2012-9-12,77,64,51,61,54,52,100,78,44,30.39,30.34,30.29,10,8,2,6,0,,0.00,5,,151
2012-9-13,73,62,51,59,52,46,100,78,38,30.41,30.34,30.28,10,8,3,8,1,,0.00,3,,159
2012-9-14,77,62,48,59,52,46,100,80,34,30.34,30.29,30.24,10,8,0,7,1,,0.00,4,Fog,288
2012-9-15,80,65,50,61,54,50,100,80,34,30.30,30.23,30.16,10,7,0,7,0,,0.00,5,Fog,269
2012-9-16,75,65,55,63,59,55,100,89,53,30.20,30.15,30.10,10,8,1,5,0,,0.02,5,Rain,97
2012-9-17,73,66,59,66,60,57,100,88,61,30.16,30.03,29.86,10,7,0,10,1,17,0.25,7,Fog-Rain,135
2012-9-18,68,64,59,66,61,50,100,91,68,29.99,29.82,29.75,10,8,2,14,4,20,1.51,7,Rain,201
2012-9-19,73,58,44,59,51,45,100,77,47,30.15,30.07,30.00,10,8,0,7,2,,0.00,4,Fog,302
2012-9-20,73,62,50,59,53,50,100,83,47,30.20,30.15,30.08,10,6,0,7,1,,0.00,4,Fog,115
2012-9-21,78,64,50,64,52,46,100,83,32,30.17,30.11,30.03,10,5,0,9,1,,0.00,4,Fog,239
2012-9-22,80,64,48,61,51,45,100,72,34,30.12,30.07,30.00,10,8,0,14,3,26,0.00,3,Fog,281
2012-9-23,71,55,39,46,35,12,100,63,10,30.22,30.17,30.12,10,9,0,13,2,21,0.00,1,Fog,303
2012-9-24,71,52,32,46,38,32,100,72,27,30.28,30.23,30.15,10,9,0,6,1,,0.00,0,Fog,107
2012-9-25,77,57,37,55,47,37,100,78,34,30.30,30.25,30.19,10,7,0,7,0,,0.00,3,Fog,97
2012-9-26,80,65,50,61,53,50,100,80,37,30.29,30.24,30.18,10,6,0,6,0,,0.00,3,Fog,79
2012-9-27,78,64,50,61,54,50,100,82,39,30.30,30.24,30.17,10,6,0,8,0,,0.00,4,Fog,286
2012-9-28,78,64,51,63,56,52,100,86,44,30.23,30.16,30.07,10,6,0,9,1,,0.00,4,Fog,294
2012-9-29,73,62,51,64,57,52,100,89,57,30.11,30.02,29.93,10,7,0,9,1,,0.07,5,Fog-Rain,299
2012-9-30,71,61,51,59,54,52,100,84,50,29.98,29.93,29.86,10,7,0,5,0,,0.01,5,Fog,109